Observations for Trim Market St
| Time | AQI | Temp °C | Hum % | Pres Pa | CO μg/m³ | H₂S μg/m³ | NO μg/m³ | NO₂ μg/m³ | O₃ μg/m³ | SO₂ μg/m³ | PM1 μg/m³ | PM2.5 μg/m³ | PM10 μg/m³ |
|---|---|---|---|---|---|---|---|---|---|---|---|---|---|
| Tuesday 18 August 2026 | |||||||||||||
| 16:27 | 2 | 24 | 46 | 65,119 | 0 | 0 | 1.29 | 9.82 | 82.81 | 0 | 0.71 | 3.14 | 3.45 |
| 16:26 | 2 | 24 | 46 | 65,161 | 0 | 0 | 1.27 | 9.12 | 70.31 | 0 | 0 | 3.14 | 3.46 |
| 16:25 | 2 | 24.1 | 46 | 65,188 | 0 | 0 | 1.35 | 9.75 | 81.26 | 0 | 0 | 2.63 | 2.89 |
| 16:24 | 2 | 24.1 | 46 | 65,226 | 0 | 0 | 1.47 | 10.6 | 82.72 | 0 | 1.43 | 3.15 | 3.47 |
| 16:23 | 2 | 24.2 | 46 | 65,244 | 0 | 0 | 1.8 | 9.56 | 92.2 | 0 | 0 | 4.72 | 5.21 |
| 16:22 | 2 | 24.3 | 46 | 65,262 | 0 | 0 | 1.84 | 9.02 | 62.94 | 0 | 0 | 2.11 | 2.13 |
| 16:21 | 2 | 24.3 | 46 | 65,262 | 0 | 0 | 1.94 | 8.84 | 66.18 | 0 | 0.71 | 3.15 | 3.67 |
| 16:20 | 2 | 24.4 | 46 | 65,256 | 0 | 0 | 1.84 | 10.33 | 63.33 | 0 | 0 | 2.63 | 2.89 |
| 16:17 | 2 | 24.6 | 46 | 65,240 | 0 | 0 | 1.59 | 9.98 | 69.76 | 0 | 0.71 | 2.63 | 2.9 |
| 16:16 | 2 | 24.6 | 46 | 65,226 | 0 | 0 | 1.5 | 9.26 | 65.44 | 0 | 0 | 2.11 | 2.32 |
| 16:15 | 2 | 24.7 | 46 | 65,207 | 0 | 0 | 1.74 | 9.94 | 67.77 | 0 | 0 | 2.1 | 2.31 |
| 16:11 | 2 | 24.8 | 46 | 65,157 | 0 | 0 | 2 | 13.36 | 62.13 | 0 | 0 | 2.09 | 2.3 |
| 16:03 | 2 | 25 | 46 | 65,238 | 0 | 0 | 1.87 | 10.53 | 78.05 | 0 | 0 | 2.64 | 2.9 |
| 16:02 | 2 | 25 | 46 | 65,246 | 0 | 0 | 1.89 | 20.26 | 61.27 | 0 | 0 | 2.11 | 2.32 |
| 16:01 | 2 | 25 | 46 | 65,256 | 0 | 0 | 1.57 | 10.16 | 72.41 | 0 | 0 | 2.11 | 2.91 |
| 16:00 | 2 | 25 | 46 | 65,272 | 0 | 0 | 1.67 | 10.12 | 70.06 | 0 | 0 | 2.63 | 2.89 |
| 15:59 | 2 | 25 | 46 | 65,293 | 0 | 0 | 1.78 | 10.71 | 84.95 | 0 | 0 | 2.12 | 2.33 |
| 15:57 | 2 | 25 | 45 | 65,348 | 0 | 0 | 1.82 | 10.62 | 79.03 | 0 | 0 | 2.13 | 2.89 |
| 15:56 | 2 | 25 | 45 | 65,331 | 0 | 0 | 1.79 | 10.65 | 69.7 | 0 | 0 | 2.13 | 2.34 |
| 15:53 | 2 | 25.1 | 45 | 65,337 | 0 | 0 | 1.4 | 10.59 | 78.84 | 0 | 0 | 2.13 | 2.35 |